BREEZE-M DEB (TANK), 39524

Orbit data source: Space-Track

BREEZE-M DEB (TANK), 39524 is space debris in HEO originally from a launch on Fri, 14 Feb 2014 UTC launched from the Tyuratam Missile And Space Complex (TTMTR). Debris objects in space refer to the collection of defunct objects orbiting the Earth. Examples of debris include non-operational satellites, rocket bodies, and fragments generated from explosions, collisions, or faulty payload assembly.

Loading next visibility...
Identifier
39524, 2014-007C
Orbit
HEO
Country
Flag of CISCIS
Related business
Manufacturer
Khrunichev
Mission
Spacecraft
Bus & Motor
BRIZ TANK, Unknown motor
Mass
~1,000 kg wet, 1,000 kg dry
Launch date (UTC)
2014-02-14 (12 years ago)
Launch vehicle
Unknown
Launch site
Tyuratam Missile And Space Complex (TTMTR)
Object type
Payload
Rocket body
Debris
Shape & HBR
Torus, 2.0 m
Radar Cross Section
8.218 m², Large (>1 m²)

Expand to show TLE details & history
Last TLE update: 2 days ago

TLE from 2 days ago
0 BREEZE-M DEB (TANK)
1 39524U 14007C   26171.31486259  .00013773  00000-0  11273-2 0  9997
2 39524  49.3754 305.3104 5923296 197.7333 126.8054  4.19852462172762
Epoch: 2026-06-20T07:33Z
TLE epoch observation values (Epoch: 2026-06-20T07:33:24.127Z)
Latitude
-0.00004°
Longitude
-76.57536°
Altitude
17,808.851 km
Speed
2.899 km/s
True Right ascension
20h 21m 13s
True Declination
0° 00' 00"
Sunlit
Object was in daylight at epoch
Visualization orbit readout
Latitude
Unknown
Longitude
Unknown
Altitude
Unknown
Speed
Unknown
Apparent Right ascension
Unknown
Apparent Declination
Unknown
Sunlit
N/A
Visualization observer readout
Local Sidereal Time
23:09:02
Azimuth
Unknown
Elevation
Unknown
Doppler factor
Unknown
Orbital elements
Apogee altitude
19,467.633 km
Perigee altitude
238.932 km
Semi-major axis
16,231.42 km
Eccentricity
0.59233
Inclination
49.3754°
RAAN
305.3104°
Arg. of periapsis
197.7333°
True anomaly
162.33405°
Mean anomaly
126.8054°
Eccentric anomaly
145.85461°
Mean motion
1.04956 °/min
Orbital period
343 mins
BSTAR
0.0011273
Loading maneuver chart data...
Computing Atmospheric mass density...
Loading historical data...
Loading historical data...
Loading historical data...
Loading historical data...
Loading historical data...
Loading historical data...
Loading historical data...
Other satellites on launch #7 in the year 2014 (2014-02-14 UTC)

Documentation

Showing up to 5 results
|